FENGYUN 1C DEB, 35195

Orbit data source: Space-Track

FENGYUN 1C DEB, 35195 is space debris in SSO originally from a launch on Mon, 10 May 1999 UTC launched from the Taiyaun Space Center, China (TSC). Fengyun 1C debris stems from the Chinese weather satellite Fengyun-1C, which was intentionally destroyed by a Chinese anti-satellite missile in 2007. This event dramatically increased the amount of space debris, with thousands of trackable fragments posing hazards to satellites and human spaceflight. The Fengyun 1C debris cloud has become a focal point in discussions about space sustainability and the need for international regulations to prevent the creation of new debris.

Loading next visibility...
Identifier
35195, 1999-025DPB
Orbit
SSO
Country
Flag of CNCN / PRC
Related business
Manufacturer
Unknown
Mission
Spacecraft
Bus & Motor
Unknown
Mass
Unknown
Launch date (UTC)
1999-05-10 (27 years ago)
Launch vehicle
Unknown
Launch site
Taiyaun Space Center, China (TSC)
Object type
Payload
Rocket body
Debris
Shape & HBR
Unknown shape, 0.1 m
Radar Cross Section
Small (<0.1 m²)

Expand to show TLE details & history
Last TLE update: 3 days ago

TLE from 3 days ago
0 FENGYUN 1C DEB
1 35195U 99025DPB 26143.55360908  .00001676  00000-0  35807-3 0  9996
2 35195  98.9855 255.3796 0099403 297.2953  61.8147 14.57379280932825
Epoch: 2026-05-23T13:17Z
TLE epoch observation values (Epoch: 2026-05-23T13:17:11.824Z)
Latitude
-0.0001°
Longitude
174.9119°
Altitude
671.906 km
Speed
7.538 km/s
True Right ascension
17h 01m 31s
True Declination
0° 00' 00"
Sunlit
Object was in full shadow at epoch
Visualization orbit readout
Latitude
Unknown
Longitude
Unknown
Altitude
Unknown
Speed
Unknown
Apparent Right ascension
Unknown
Apparent Declination
Unknown
Sunlit
N/A
Visualization observer readout
Local Sidereal Time
15:39:14
Azimuth
Unknown
Elevation
Unknown
Doppler factor
Unknown
Orbital elements
Apogee altitude
769.117 km
Perigee altitude
628.424 km
Semi-major axis
7,076.908 km
Eccentricity
0.00994
Inclination
98.9855°
RAAN
255.3796°
Arg. of periapsis
297.2953°
True anomaly
62.82458°
Mean anomaly
61.8147°
Eccentric anomaly
62.31905°
Mean motion
3.64567 °/min
Orbital period
98.75 mins
BSTAR
0.00035807
Loading maneuver chart data...
Computing Atmospheric mass density...
Loading historical data...
Loading historical data...
Loading historical data...
Loading historical data...
Loading historical data...
Loading historical data...
Loading historical data...

Documentation

Showing up to 5 results
|